リニア彗星

P/2002 T5 ( LINEAR ) 2021

English version
Home page
Updated on July 8, 2017

---------------------------------------------------------------------

・ プロフィール

・ 軌道要素

Epoch 2021 Dec. 12.0 TT = JDT 2459560.5
T 2021 Dec. 15.39093 TT                                 MPC
q   3.9379137            (2000.0)            P               Q
n   0.05303729     Peri.  326.73360     -0.06197502     -0.90087227
a   7.0158744      Node   123.09145     +0.99049022     -0.10849146
e   0.4387138      Incl.   30.85158     +0.12283413     +0.42030793
P  18.6
From 943 observations 2002 Oct. 5-2005 Apr. 5, mean residual 0".6.

・ 星図

・ 光度変化

        m1 = 8.0 + 5 logΔ + 10.0

---------------------------------------------------------------------

軌道要素はM.P.E.C. 2013-B90に掲載されたものです。
星図はステラナビゲータ Ver.10 (アストロアーツ) で作成したものです。
光度グラフはComet for Windowsで作成したものです。

---------------------------------------------------------------------

Copyright(C) Seiichi Yoshida (comet@aerith.net). All rights reserved.